Location: Bh?mavarapp?du
(16.7041°N, 80.6518°E)
Time: 01:09:22
(UTC+00:00)

ALOS - Pass Details

Date: 21 April 2021
Orbit: 682 x 685 km, 97.9° (Epoch: 08 May)

Event Time Altitude Azimuth Distance (km) Brightness Sun altitude
Rises 22:43:56 0° 8° (N) 3,037 6.0 -22.3°
Reaches altitude 10° 22:46:10 10° 6° (N) 2,120 5.1 -21.8°
Maximum altitude 22:50:47 71° 283° (WNW) 721 2.1 -20.7°
Enters shadow 22:52:32 37° 209° (SSW) 1,046 2.8 -20.3°
